TimeCDT,TemperatureF,Dew PointF,Humidity,Sea Level PressureIn,VisibilityMPH,Wind Direction,Wind SpeedMPH,Gust SpeedMPH,PrecipitationIn,Events,Conditions,WindDirDegrees,DateUTC
12:54 AM,48.0,30.0,50,29.59,10.0,WNW,23.0,31.1,N/A,,Overcast,300,2011-10-15 05:54:00
1:54 AM,46.9,28.9,50,29.61,10.0,WNW,20.7,35.7,N/A,,Mostly Cloudy,300,2011-10-15 06:54:00
2:54 AM,46.9,28.9,50,29.62,10.0,WNW,19.6,35.7,N/A,,Partly Cloudy,300,2011-10-15 07:54:00
3:54 AM,46.0,30.0,54,29.63,10.0,WNW,26.5,38.0,N/A,,Partly Cloudy,300,2011-10-15 08:54:00
4:54 AM,45.0,28.9,53,29.65,10.0,WNW,25.3,35.7,N/A,,Clear,290,2011-10-15 09:54:00
5:54 AM,45.0,28.9,53,29.66,10.0,WNW,17.3,35.7,N/A,,Clear,300,2011-10-15 10:54:00
6:54 AM,44.1,28.0,53,29.67,10.0,WNW,24.2,36.8,N/A,,Clear,300,2011-10-15 11:54:00
8:54 AM,45.0,28.0,52,29.70,10.0,WNW,21.9,34.5,0.00,Rain,Light Rain,300,2011-10-15 13:54:00
10:54 AM,48.9,28.9,46,29.72,10.0,WNW,24.2,33.4,0.00,,Clear,290,2011-10-15 15:54:00
11:54 AM,51.1,28.9,43,29.72,10.0,WNW,21.9,36.8,N/A,,Clear,300,2011-10-15 16:54:00
12:54 PM,53.1,30.9,43,29.72,10.0,WNW,23.0,36.8,N/A,,Mostly Cloudy,290,2011-10-15 17:54:00
1:54 PM,53.1,30.9,43,29.71,10.0,WNW,19.6,29.9,N/A,,Scattered Clouds,290,2011-10-15 18:54:00
2:54 PM,55.0,30.9,40,29.72,10.0,West,25.3,33.4,N/A,,Mostly Cloudy,270,2011-10-15 19:54:00
3:54 PM,55.0,32.0,42,29.71,10.0,WNW,21.9,31.1,N/A,,Partly Cloudy,290,2011-10-15 20:54:00
4:54 PM,54.0,30.9,41,29.73,10.0,West,21.9,33.4,N/A,,Partly Cloudy,280,2011-10-15 21:54:00
5:54 PM,52.0,30.9,45,29.73,10.0,West,19.6,28.8,N/A,,Clear,280,2011-10-15 22:54:00
6:54 PM,50.0,32.0,50,29.75,10.0,West,11.5,-,N/A,,Clear,270,2011-10-15 23:54:00
7:54 PM,48.9,33.1,54,29.76,10.0,West,13.8,-,N/A,,Clear,270,2011-10-16 00:54:00
8:54 PM,48.9,34.0,56,29.76,10.0,West,13.8,21.9,N/A,,Clear,270,2011-10-16 01:54:00
9:54 PM,48.9,34.0,56,29.77,10.0,West,13.8,-,N/A,,Clear,260,2011-10-16 02:54:00
10:54 PM,48.9,35.1,59,29.77,10.0,West,13.8,-,N/A,,Mostly Cloudy,270,2011-10-16 03:54:00
11:54 PM,50.0,35.1,57,29.77,10.0,West,13.8,-,N/A,,Mostly Cloudy,270,2011-10-16 04:54:00